CW5539 Weather Reports


time (UTC)temp
C
wind
direction
speed
KPH
gust
KPH
rain 1hr
cm
rain 24hr
cm
rain mn
cm
humidity
%
barometer
mb
20260504004936 10 238 0.0 0.0 0.00 0.00 0.00 45 1015.8
20260504004434 10 238 0.0 0.0 0.00 0.00 0.00 46 1015.7
20260504003930 11 238 0.0 0.0 0.00 0.00 0.00 45 1015.6
20260504003427 11 238 0.0 0.0 0.00 0.00 0.00 45 1015.8
20260504002924 11 238 0.0 0.0 0.00 0.00 0.00 42 1015.5
20260504002420 11 238 0.0 0.0 0.00 0.00 0.00 41 1015.4
20260504001918 12 238 0.0 0.0 0.00 0.00 0.00 40 1015.3
20260504001416 12 238 0.0 0.0 0.00 0.00 0.00 39 1015.3
20260504000912 12 240 0.0 0.0 0.00 0.00 0.00 37 1015.4
20260504000409 12 241 0.0 0.0 0.00 0.00 0.00 36 1015.0
20260503235906 12 241 0.0 1.6 0.00 0.00 0.00 35 1015.0
20260503235404 13 243 0.0 0.0 0.00 0.00 0.00 35 1015.1
20260503234901 13 243 0.0 0.0 0.00 0.00 0.00 34 1015.0
20260503234359 13 243 1.6 1.6 0.00 0.00 0.00 33 1015.0
20260503233856 13 244 0.0 1.6 0.00 0.00 0.00 33 1015.1
20260503233353 13 241 3.2 3.2 0.00 0.00 0.00 33 1014.8
20260503232849 14 236 3.2 3.2 0.00 0.00 0.00 32 1015.1
20260503232347 14 241 1.6 3.2 0.00 0.00 0.00 32 1015.1
20260503231844 14 252 1.6 11.3 0.00 0.00 0.00 31 1014.9
20260503231341 14 232 1.6 11.3 0.00 0.00 0.00 31 1015.0
20260503230837 14 230 3.2 4.8 0.00 0.00 0.00 31 1014.8
20260503230334 14 268 0.0 6.4 0.00 0.00 0.00 32 1014.7
20260503225832 15 282 1.6 4.8 0.00 0.00 0.00 30 1014.7
20260503225328 15 240 1.6 3.2 0.00 0.00 0.00 30 1014.8
20260503224824 15 257 0.0 11.3 0.00 0.00 0.00 30 1014.6
20260503224321 15 205 3.2 9.7 0.00 0.00 0.00 30 1014.5
20260503223819 15 190 4.8 6.4 0.00 0.00 0.00 30 1014.5
20260503223317 15 328 3.2 9.7 0.00 0.00 0.00 30 1014.7
20260503222812 15 307 3.2 11.3 0.00 0.00 0.00 29 1014.6
20260503222311 15 216 6.4 11.3 0.00 0.00 0.00 29 1014.5
20260503221809 15 286 3.2 3.2 0.00 0.00 0.00 30 1014.6
20260503221307 15 270 3.2 4.8 0.00 0.00 0.00 29 1014.5
20260503220802 15 243 4.8 6.4 0.00 0.00 0.00 30 1014.6
20260503220259 15 281 9.7 16.1 0.00 0.00 0.00 28 1014.6
20260503215756 15 263 3.2 11.3 0.00 0.00 0.00 29 1014.6
20260503215253 15 303 4.8 6.4 0.00 0.00 0.00 29 1014.4
20260503214751 16 216 3.2 6.4 0.00 0.00 0.00 28 1014.5
20260503214248 16 245 6.4 9.7 0.00 0.00 0.00 28 1014.5
20260503213746 17 251 1.6 11.3 0.00 0.00 0.00 28 1014.4
20260503213243 16 268 1.6 4.8 0.00 0.00 0.00 28 1014.3
20260503212740 16 257 4.8 11.3 0.00 0.00 0.00 27 1014.4
20260503212237 16 212 4.8 16.1 0.00 0.00 0.00 29 1014.4
20260503211735 17 250 1.6 6.4 0.00 0.00 0.00 28 1014.3
20260503211231 16 277 4.8 6.4 0.00 0.00 0.00 28 1014.4
20260503210726 16 243 0.0 9.7 0.00 0.00 0.00 28 1014.3
20260503210224 16 279 3.2 11.3 0.00 0.00 0.00 28 1014.2
20260503205719 17 301 1.6 12.9 0.00 0.00 0.00 29 1014.4
20260503205216 16 244 4.8 6.4 0.00 0.00 0.00 27 1014.2
20260503204712 16 239 6.4 11.3 0.00 0.00 0.00 27 1014.0
20260503204210 16 254 6.4 11.3 0.00 0.00 0.00 28 1014.2
20260503203707 16 172 4.8 6.4 0.00 0.00 0.00 28 1014.2
20260503203205 16 255 1.6 9.7 0.00 0.00 0.00 31 1014.2
20260503202701 16 254 8.0 20.9 0.00 0.00 0.00 29 1014.0
20260503202159 16 350 3.2 16.1 0.00 0.00 0.00 29 1014.1
20260503201657 16 242 3.2 11.3 0.00 0.00 0.00 32 1014.0
20260503201155 16 285 3.2 4.8 0.00 0.00 0.00 32 1014.1
20260503200650 16 297 6.4 14.5 0.00 0.00 0.00 29 1014.3
20260503200147 15 219 6.4 9.7 0.00 0.00 0.00 30 1014.3
20260503195644 15 267 4.8 12.9 0.00 0.00 0.00 30 1014.2
20260503195141 15 285 4.8 6.4 0.00 0.00 0.00 32 1014.3
20260503194638 15 310 6.4 14.5 0.00 0.00 0.00 32 1014.7
20260503194133 15 185 8.0 16.1 0.00 0.00 0.00 30 1014.8
20260503193631 15 272 4.8 16.1 0.00 0.00 0.00 33 1014.7
20260503193126 15 246 0.0 6.4 0.00 0.00 0.00 33 1014.5
20260503192622 16 267 4.8 6.4 0.00 0.00 0.00 33 1014.6
20260503192118 15 230 3.2 4.8 0.00 0.00 0.00 32 1014.6
20260503191615 15 227 9.7 14.5 0.00 0.00 0.00 31 1014.7
20260503191111 15 308 3.2 12.9 0.00 0.00 0.00 33 1014.8
20260503190609 16 236 12.9 17.7 0.00 0.00 0.00 31 1014.9
20260503190106 15 240 0.0 4.8 0.00 0.00 0.00 34 1015.0
20260503185602 15 287 3.2 20.9 0.00 0.00 0.00 36 1014.9
20260503185102 15 274 3.2 12.9 0.00 0.00 0.00 34 1015.1
20260503184557 15 259 1.6 4.8 0.00 0.00 0.00 35 1014.8
20260503184054 15 216 4.8 11.3 0.00 0.00 0.00 38 1015.1
20260503183551 14 256 3.2 3.2 0.00 0.00 0.00 34 1015.1
20260503183048 15 333 1.6 6.4 0.00 0.00 0.00 37 1015.3
20260503182547 14 241 0.0 14.5 0.00 0.00 0.00 37 1014.9
20260503182044 13 258 3.2 6.4 0.00 0.00 0.00 38 1015.3
20260503181541 13 323 1.6 6.4 0.00 0.00 0.00 36 1015.2
20260503181037 13 256 1.6 4.8 0.00 0.00 0.00 39 1015.3
20260503180535 13 246 1.6 11.3 0.00 0.00 0.00 38 1015.2
20260503180032 14 268 6.4 9.7 0.00 0.00 0.00 34 1015.3
20260503175529 14 252 6.4 11.3 0.00 0.00 0.00 35 1015.3
20260503175026 13 3 3.2 17.7 0.00 0.00 0.00 38 1015.2
20260503174524 12 277 1.6 6.4 0.00 0.00 0.00 36 1015.4
20260503174020 13 305 4.8 12.9 0.00 0.00 0.00 35 1015.1
20260503173515 13 240 4.8 11.3 0.00 0.00 0.00 37 1015.4
20260503173011 13 342 3.2 12.9 0.00 0.00 0.00 37 1015.3
20260503172509 13 273 4.8 12.9 0.00 0.00 0.00 36 1015.3
20260503172006 13 270 3.2 6.4 0.00 0.00 0.00 37 1015.4
20260503171502 13 300 4.8 9.7 0.00 0.00 0.00 36 1015.5
20260503171000 14 265 1.6 4.8 0.00 0.00 0.00 37 1015.5
20260503170456 14 351 4.8 4.8 0.00 0.00 0.00 36 1015.2
20260503150848 12 292 1.6 6.4 0.00 0.00 0.00 40 1015.8
20260503150344 12 262 3.2 9.7 0.00 0.00 0.00 41 1015.8
20260503140309 11 188 6.4 11.3 0.00 0.00 0.00 45 1016.2
20260503131238 10 277 4.8 6.4 0.00 0.00 0.00 47 1015.7
20260503130736 10 275 1.6 4.8 0.00 0.00 0.00 48 1015.7
20260503130233 10 274 3.2 9.7 0.00 0.00 0.00 48 1016.0
20260503120159 8 287 9.7 16.1 0.00 0.00 0.00 52 1015.3
20260503110626 8 264 0.0 4.8 0.00 0.00 0.00 53 1014.8
20260503110124 8 248 1.6 3.2 0.00 0.00 0.00 53 1014.7
20260503081439 8 254 1.6 3.2 0.00 0.00 0.00 52 1013.5
20260503080937 8 306 0.0 1.6 0.00 0.00 0.00 53 1013.6
20260503080433 8 252 0.0 0.0 0.00 0.00 0.00 54 1013.1
20260503072909 8 254 0.0 0.0 0.00 0.00 0.00 55 1013.3
20260503072407 8 254 0.0 0.0 0.00 0.00 0.00 53 1013.5
20260503071903 8 254 0.0 0.0 0.00 0.00 0.00 52 1013.4
20260503071401 9 253 0.0 0.0 0.00 0.00 0.00 51 1013.4
20260503070856 9 254 0.0 0.0 0.00 0.00 0.00 50 1013.4
20260503070354 10 260 0.0 0.0 0.00 0.00 0.00 50 1013.4
20260503060320 10 321 1.6 3.2 0.00 0.00 0.00 45 1013.5
20260503054808 10 297 0.0 4.8 0.00 0.00 0.00 46 1013.7
20260503054303 10 257 0.0 0.0 0.00 0.00 0.00 50 1013.6
20260503053801 10 256 0.0 0.0 0.00 0.00 0.00 50 1013.5
20260503053300 10 256 0.0 0.0 0.00 0.00 0.00 49 1013.5
20260503052755 10 256 0.0 0.0 0.00 0.00 0.00 49 1013.6
20260503052253 10 249 0.0 0.0 0.00 0.00 0.00 49 1013.6
20260503051748 10 248 0.0 0.0 0.00 0.00 0.00 47 1013.6
20260503051246 10 255 0.0 0.0 0.00 0.00 0.00 47 1013.5
20260503050742 10 260 0.0 1.6 0.00 0.00 0.00 48 1013.5
20260503050238 11 262 0.0 0.0 0.00 0.00 0.00 47 1013.7
20260503045736 11 279 1.6 1.6 0.00 0.00 0.00 46 1014.1
20260503045234 11 256 0.0 0.0 0.00 0.00 0.00 46 1013.9
20260503044730 11 254 0.0 1.6 0.00 0.00 0.00 44 1014.1
20260503044227 11 260 0.0 1.6 0.00 0.00 0.00 45 1014.1
20260503043724 11 256 0.0 0.0 0.00 0.00 0.00 46 1014.0
20260503043221 11 264 0.0 3.2 0.00 0.00 0.00 44 1014.2
20260503042717 11 258 0.0 1.6 0.00 0.00 0.00 46 1014.1
20260503042214 11 273 3.2 3.2 0.00 0.00 0.00 46 1014.3
20260503041710 11 248 0.0 3.2 0.00 0.00 0.00 46 1014.0
20260503041208 11 267 0.0 1.6 0.00 0.00 0.00 46 1013.9
20260503040705 11 275 1.6 3.2 0.00 0.00 0.00 47 1013.8
20260503040203 11 273 0.0 3.2 0.00 0.00 0.00 47 1014.0
20260503035659 10 252 0.0 1.6 0.00 0.00 0.00 53 1014.1
20260503035157 10 264 0.0 0.0 0.00 0.00 0.00 58 1014.3
20260503034654 10 259 0.0 0.0 0.00 0.00 0.00 58 1014.3
20260503034151 10 248 0.0 0.0 0.00 0.00 0.00 59 1014.2
20260503033648 10 248 0.0 0.0 0.00 0.00 0.00 60 1014.0
20260503033146 10 249 0.0 0.0 0.00 0.00 0.00 61 1014.0
20260503032644 10 247 0.0 0.0 0.00 0.00 0.00 62 1014.1
20260503032142 10 247 0.0 0.0 0.00 0.00 0.00 63 1014.2
20260503031639 10 247 0.0 0.0 0.00 0.00 0.00 63 1014.3
20260503031137 10 247 0.0 0.0 0.00 0.00 0.00 65 1014.0
20260503030632 10 247 0.0 0.0 0.00 0.00 0.00 68 1014.1
20260503030129 10 247 0.0 0.0 0.00 0.00 0.00 70 1014.3
20260503025626 10 247 0.0 0.0 0.00 0.00 0.00 71 1013.9
20260503025124 10 247 0.0 0.0 0.00 0.00 0.00 71 1014.2
20260503024620 10 247 0.0 0.0 0.00 0.00 0.00 72 1014.1
20260503024117 10 247 0.0 0.0 0.00 0.00 0.00 70 1014.1
20260503023615 9 247 0.0 0.0 0.00 0.00 0.00 73 1014.4
20260503023112 10 247 0.0 0.0 0.00 0.00 0.00 75 1014.3
20260503022607 10 247 0.0 0.0 0.00 0.00 0.00 76 1014.4
20260503022102 10 247 0.0 0.0 0.00 0.00 0.00 78 1014.3
20260503021600 10 247 0.0 0.0 0.00 0.00 0.00 79 1014.2
20260503021056 10 247 0.0 0.0 0.00 0.00 0.00 79 1014.2
20260503020553 10 247 0.0 0.0 0.00 0.00 0.00 80 1013.9
20260503020050 10 247 0.0 0.0 0.00 0.00 0.00 81 1014.3
20260503015547 10 247 0.0 0.0 0.00 0.00 0.00 80 1014.4
20260503015044 10 247 0.0 0.0 0.00 0.00 0.00 80 1014.3
20260503014540 10 247 0.0 0.0 0.00 0.00 0.00 80 1014.4
20260503014038 10 247 0.0 0.0 0.00 0.00 0.00 81 1014.3
20260503013535 10 247 0.0 0.0 0.00 0.00 0.00 80 1014.1
20260503013033 10 247 0.0 0.0 0.00 0.00 0.00 80 1014.3
20260503012530 10 246 0.0 0.0 0.00 0.00 0.00 80 1014.4
20260503012026 10 246 0.0 0.0 0.00 0.00 0.00 80 1014.5
20260503011523 10 256 0.0 0.0 0.00 0.00 0.00 80 1014.0
20260503011020 10 270 0.0 0.0 0.00 0.00 0.00 79 1014.1
20260503010516 10 247 0.0 0.0 0.00 0.00 0.00 79 1014.1
20260503010014 10 247 0.0 0.0 0.00 0.00 0.00 77 1014.0
20260503005511 10 247 0.0 0.0 0.00 0.00 0.00 78 1014.0
20260503005008 10 253 0.0 0.0 0.00 0.00 0.00 77 1013.8